Time,TemperatureF,DewpointF,PressureIn,WindDirection,WindDirectionDegrees,WindSpeedMPH,WindSpeedGustMPH,Humidity,HourlyPrecipIn,Conditions,Clouds,dailyrainin,SoftwareType,DateUTC
2013-07-24 00:00:00,81.1,-99.9,25.10,North,-999,0.0,2.7,-999,0.00,,,-99.99,FreeWX 2.04,2013-07-24 06:00:00,
2013-07-24 00:05:00,81.3,-99.9,25.10,North,-999,0.0,0.0,-999,0.00,,,-99.99,FreeWX 2.04,2013-07-24 06:05:00,
2013-07-24 00:10:00,81.1,-99.9,25.10,North,-999,0.0,0.0,-999,0.00,,,-99.99,FreeWX 2.04,2013-07-24 06:10:00,
2013-07-24 00:15:00,81.0,-99.9,25.07,North,-999,0.0,3.1,-999,0.00,,,-99.99,FreeWX 2.04,2013-07-24 06:15:00,
2013-07-24 00:20:00,81.3,-99.9,25.07,North,-999,0.0,2.7,-999,0.00,,,-99.99,FreeWX 2.04,2013-07-24 06:20:00,
2013-07-24 00:25:00,81.5,-99.9,25.07,NNE,23,1.0,3.6,-999,0.00,,,-99.99,FreeWX 2.04,2013-07-24 06:25:00,
2013-07-24 00:30:00,82.2,-99.9,25.10,NNE,23,2.0,4.0,-999,0.00,,,-99.99,FreeWX 2.04,2013-07-24 06:30:00,
2013-07-24 00:35:00,81.5,-99.9,25.10,NNE,23,2.0,4.0,-999,0.00,,,-99.99,FreeWX 2.04,2013-07-24 06:35:00,
2013-07-24 00:40:00,80.6,-99.9,25.10,NNE,23,2.0,4.5,-999,0.00,,,-99.99,FreeWX 2.04,2013-07-24 06:40:00,
2013-07-24 00:45:00,80.6,-99.9,25.10,NNE,23,3.0,4.9,-999,0.00,,,-99.99,FreeWX 2.04,2013-07-24 06:45:00,
2013-07-24 00:50:00,80.4,-99.9,25.10,NNE,23,3.0,4.5,-999,0.00,,,-99.99,FreeWX 2.04,2013-07-24 06:50:00,
2013-07-24 00:55:00,80.4,-99.9,25.10,NNE,22,3.0,5.4,-999,0.00,,,-99.99,FreeWX 2.04,2013-07-24 06:55:00,
2013-07-24 01:00:00,81.0,-99.9,25.10,NNE,19,4.0,5.4,-999,0.00,,,-99.99,FreeWX 2.04,2013-07-24 07:00:00,
2013-07-24 01:05:00,81.0,-99.9,25.10,NNE,17,4.0,5.4,-999,0.00,,,-99.99,FreeWX 2.04,2013-07-24 07:05:00,
2013-07-24 01:10:00,80.8,-99.9,25.10,NNE,17,4.0,6.7,-999,0.00,,,-99.99,FreeWX 2.04,2013-07-24 07:10:00,
2013-07-24 01:15:00,80.4,-99.9,25.10,NNE,21,4.0,4.9,-999,0.00,,,-99.99,FreeWX 2.04,2013-07-24 07:15:00,
2013-07-24 01:20:00,80.1,-99.9,25.10,NNE,27,2.0,4.5,-999,0.00,,,-99.99,FreeWX 2.04,2013-07-24 07:20:00,
2013-07-24 01:25:00,79.9,-99.9,25.10,NNE,30,1.0,3.1,-999,0.00,,,-99.99,FreeWX 2.04,2013-07-24 07:25:00,
2013-07-24 01:30:00,80.4,-99.9,25.07,NNE,31,1.0,4.0,-999,0.00,,,-99.99,FreeWX 2.04,2013-07-24 07:30:00,
2013-07-24 01:35:00,80.8,-99.9,25.07,NNE,31,1.0,3.6,-999,0.00,,,-99.99,FreeWX 2.04,2013-07-24 07:35:00,
2013-07-24 01:40:00,81.0,-99.9,25.07,North,-999,0.0,3.6,-999,0.00,,,-99.99,FreeWX 2.04,2013-07-24 07:40:00,
2013-07-24 01:45:00,80.8,-99.9,25.07,North,-999,0.0,3.1,-999,0.00,,,-99.99,FreeWX 2.04,2013-07-24 07:45:00,
2013-07-24 01:50:00,80.6,-99.9,25.07,NNE,31,1.0,3.6,-999,0.00,,,-99.99,FreeWX 2.04,2013-07-24 07:50:00,
2013-07-24 01:55:00,80.1,-99.9,25.07,NNE,31,2.0,3.6,-999,0.00,,,-99.99,FreeWX 2.04,2013-07-24 07:55:00,
2013-07-24 02:00:00,79.5,-99.9,25.07,NNE,31,1.0,3.1,-999,0.00,,,-99.99,FreeWX 2.04,2013-07-24 08:00:00,
2013-07-24 02:05:00,79.5,-99.9,25.07,North,-999,0.0,0.0,-999,0.00,,,-99.99,FreeWX 2.04,2013-07-24 08:05:00,
2013-07-24 02:10:00,79.2,-99.9,25.07,North,-999,0.0,0.0,-999,0.00,,,-99.99,FreeWX 2.04,2013-07-24 08:10:00,
2013-07-24 02:15:00,79.2,-99.9,25.07,North,-999,0.0,0.0,-999,0.00,,,-99.99,FreeWX 2.04,2013-07-24 08:15:00,
2013-07-24 02:20:00,79.0,-99.9,25.07,North,-999,0.0,0.0,-999,0.00,,,-99.99,FreeWX 2.04,2013-07-24 08:20:00,
2013-07-24 02:25:00,78.6,-99.9,25.07,North,-999,0.0,3.6,-999,0.00,,,-99.99,FreeWX 2.04,2013-07-24 08:25:00,
2013-07-24 02:30:00,79.0,-99.9,25.07,North,-999,0.0,3.1,-999,0.00,,,-99.99,FreeWX 2.04,2013-07-24 08:30:00,
2013-07-24 02:35:00,79.2,-99.9,25.07,North,-999,0.0,2.7,-999,0.00,,,-99.99,FreeWX 2.04,2013-07-24 08:35:00,
2013-07-24 02:40:00,79.2,-99.9,25.07,NE,34,1.0,3.1,-999,0.00,,,-99.99,FreeWX 2.04,2013-07-24 08:40:00,
2013-07-24 02:45:00,78.8,-99.9,25.07,North,-999,0.0,0.0,-999,0.00,,,-99.99,FreeWX 2.04,2013-07-24 08:45:00,
2013-07-24 02:50:00,78.4,-99.9,25.07,North,-999,0.0,0.0,-999,0.00,,,-99.99,FreeWX 2.04,2013-07-24 08:50:00,
2013-07-24 02:55:00,78.8,-99.9,25.07,North,-999,0.0,0.0,-999,0.00,,,-99.99,FreeWX 2.04,2013-07-24 08:55:00,
2013-07-24 03:00:00,78.6,-99.9,25.07,North,-999,0.0,3.6,-999,0.00,,,-99.99,FreeWX 2.04,2013-07-24 09:00:00,
2013-07-24 03:05:00,78.6,-99.9,25.07,North,-999,0.0,2.7,-999,0.00,,,-99.99,FreeWX 2.04,2013-07-24 09:05:00,
2013-07-24 03:10:00,79.2,-99.9,25.07,North,-999,0.0,3.1,-999,0.00,,,-99.99,FreeWX 2.04,2013-07-24 09:10:00,
2013-07-24 03:15:00,79.9,-99.9,25.07,NE,34,1.0,3.1,-999,0.00,,,-99.99,FreeWX 2.04,2013-07-24 09:15:00,
2013-07-24 03:20:00,80.4,-99.9,25.07,NE,34,2.0,4.0,-999,0.00,,,-99.99,FreeWX 2.04,2013-07-24 09:20:00,
2013-07-24 03:25:00,79.9,-99.9,25.07,NE,34,1.0,3.1,-999,0.00,,,-99.99,FreeWX 2.04,2013-07-24 09:25:00,
2013-07-24 03:30:00,78.4,-99.9,25.07,NE,35,2.0,4.5,-999,0.00,,,-99.99,FreeWX 2.04,2013-07-24 09:30:00,
2013-07-24 03:35:00,77.7,-99.9,25.07,NE,38,2.0,3.1,-999,0.00,,,-99.99,FreeWX 2.04,2013-07-24 09:35:00,
2013-07-24 03:41:00,77.4,-99.9,25.07,NE,40,1.0,3.6,-999,0.00,,,-99.99,FreeWX 2.04,2013-07-24 09:41:00,
2013-07-24 03:51:00,77.9,-99.9,25.07,NNE,22,4.0,6.3,-999,0.00,,,-99.99,FreeWX 2.04,2013-07-24 09:51:00,
2013-07-24 03:57:00,77.9,-99.9,25.07,NNW,340,5.0,7.4,-999,0.00,,,-99.99,FreeWX 2.04,2013-07-24 09:57:00,
2013-07-24 04:02:00,77.9,-99.9,25.07,WSW,247,5.0,8.7,-999,0.00,,,-99.99,FreeWX 2.04,2013-07-24 10:02:00,
2013-07-24 04:07:00,77.5,-99.9,25.07,SSW,208,6.0,10.1,-999,0.00,,,-99.99,FreeWX 2.04,2013-07-24 10:07:00,
2013-07-24 04:12:00,78.1,-99.9,25.07,SW,224,6.0,9.2,-999,0.00,,,-99.99,FreeWX 2.04,2013-07-24 10:12:00,
2013-07-24 04:17:00,76.8,-99.9,25.07,WSW,243,6.0,9.6,-999,0.00,,,-99.99,FreeWX 2.04,2013-07-24 10:17:00,
2013-07-24 04:22:00,76.5,-99.9,25.07,WSW,252,3.0,3.1,-999,0.00,,,-99.99,FreeWX 2.04,2013-07-24 10:22:00,
2013-07-24 04:27:00,76.3,-99.9,25.07,WSW,254,1.0,4.0,-999,0.00,,,-99.99,FreeWX 2.04,2013-07-24 10:27:00,
2013-07-24 04:32:00,76.3,-99.9,25.10,WSW,254,2.0,3.6,-999,0.00,,,-99.99,FreeWX 2.04,2013-07-24 10:32:00,
2013-07-24 04:37:00,75.7,21.4,25.10,WSW,254,1.0,3.6,13,0.00,,,-99.99,FreeWX 2.04,2013-07-24 10:37:00,
2013-07-24 04:42:00,75.0,20.8,25.10,WSW,256,1.0,4.0,13,0.00,,,-99.99,FreeWX 2.04,2013-07-24 10:42:00,
2013-07-24 04:47:00,75.2,21.0,25.10,North,-999,0.0,3.1,13,0.00,,,-99.99,FreeWX 2.04,2013-07-24 10:47:00,
2013-07-24 04:52:00,75.2,-99.9,25.10,WSW,258,1.0,3.6,-999,0.00,,,-99.99,FreeWX 2.04,2013-07-24 10:52:00,
2013-07-24 04:57:00,75.2,21.0,25.10,West,271,2.0,5.8,13,0.00,,,-99.99,FreeWX 2.04,2013-07-24 10:57:00,
2013-07-24 05:02:00,75.0,20.8,25.10,NNW,334,2.0,4.0,13,0.00,,,-99.99,FreeWX 2.04,2013-07-24 11:02:00,
2013-07-24 05:07:00,74.7,20.5,25.10,North,3,1.0,3.6,13,0.00,,,-99.99,FreeWX 2.04,2013-07-24 11:07:00,
2013-07-24 05:12:00,75.2,-99.9,25.10,North,3,1.0,3.6,-999,0.00,,,-99.99,FreeWX 2.04,2013-07-24 11:12:00,
2013-07-24 05:17:00,74.7,-99.9,25.10,North,5,2.0,6.3,-999,0.00,,,-99.99,FreeWX 2.04,2013-07-24 11:17:00,
2013-07-24 05:22:00,74.1,20.1,25.10,NNE,13,3.0,5.8,13,0.00,,,-99.99,FreeWX 2.04,2013-07-24 11:22:00,
2013-07-24 05:27:00,73.8,16.0,25.10,NNE,21,3.0,4.5,11,0.00,,,-99.99,FreeWX 2.04,2013-07-24 11:27:00,
2013-07-24 05:32:00,73.9,16.2,25.10,NNE,23,3.0,5.4,11,0.00,,,-99.99,FreeWX 2.04,2013-07-24 11:32:00,
2013-07-24 05:37:00,73.4,19.6,25.10,NNE,23,2.0,3.6,13,0.00,,,-99.99,FreeWX 2.04,2013-07-24 11:37:00,
2013-07-24 05:42:00,73.6,19.8,25.10,NNE,23,2.0,3.6,13,0.00,,,-99.99,FreeWX 2.04,2013-07-24 11:42:00,
2013-07-24 05:47:00,72.5,23.7,25.10,NNE,24,2.0,3.6,16,0.00,,,-99.99,FreeWX 2.04,2013-07-24 11:47:00,
2013-07-24 05:52:00,73.0,19.2,25.10,NNE,25,1.0,4.0,13,0.00,,,-99.99,FreeWX 2.04,2013-07-24 11:52:00,
2013-07-24 05:57:00,72.7,23.9,25.10,NNE,29,2.0,5.4,16,0.00,,,-99.99,FreeWX 2.04,2013-07-24 11:57:00,
2013-07-24 06:02:00,72.9,24.1,25.10,NE,34,2.0,4.5,16,0.00,,,-99.99,FreeWX 2.04,2013-07-24 12:02:00,
2013-07-24 06:07:00,72.9,24.1,25.10,NE,37,2.0,4.9,16,0.00,,,-99.99,FreeWX 2.04,2013-07-24 12:07:00,
2013-07-24 06:12:00,74.1,20.1,25.10,NE,36,3.0,4.5,13,0.00,,,-99.99,FreeWX 2.04,2013-07-24 12:12:00,
2013-07-24 06:17:00,73.9,19.9,25.10,NE,35,2.0,3.6,13,0.00,,,-99.99,FreeWX 2.04,2013-07-24 12:17:00,
2013-07-24 06:22:00,74.5,-99.9,25.10,NE,34,2.0,4.5,-999,0.00,,,-99.99,FreeWX 2.04,2013-07-24 12:22:00,
2013-07-24 06:27:00,74.5,-99.9,25.10,NNE,33,4.0,4.9,-999,0.00,,,-99.99,FreeWX 2.04,2013-07-24 12:27:00,
2013-07-24 06:32:00,74.3,16.3,25.10,NNE,32,2.0,3.1,11,0.00,,,-99.99,FreeWX 2.04,2013-07-24 12:32:00,
2013-07-24 06:42:00,73.4,19.6,25.10,North,-999,0.0,3.1,13,0.00,,,-99.99,FreeWX 2.04,2013-07-24 12:42:00,
2013-07-24 06:47:00,72.7,19.0,25.10,North,-999,0.0,3.1,13,0.00,,,-99.99,FreeWX 2.04,2013-07-24 12:47:00,
2013-07-24 06:52:00,73.8,16.0,25.10,NE,36,1.0,3.6,11,0.00,,,-99.99,FreeWX 2.04,2013-07-24 12:52:00,
2013-07-24 06:57:00,75.7,-99.9,25.10,NE,36,1.0,2.7,-999,0.00,,,-99.99,FreeWX 2.04,2013-07-24 12:57:00,
2013-07-24 07:02:00,75.9,-99.9,25.10,NNE,30,2.0,8.7,-999,0.00,,,-99.99,FreeWX 2.04,2013-07-24 13:02:00,
2013-07-24 07:07:00,75.4,-99.9,25.10,WNW,297,4.0,6.7,-999,0.00,,,-99.99,FreeWX 2.04,2013-07-24 13:07:00,
2013-07-24 07:12:00,73.8,24.8,25.10,SW,230,4.0,6.9,16,0.00,,,-99.99,FreeWX 2.04,2013-07-24 13:12:00,
2013-07-24 07:17:00,72.9,31.8,25.13,South,191,5.0,6.7,22,0.00,,,-99.99,FreeWX 2.04,2013-07-24 13:17:00,
2013-07-24 07:22:00,72.7,32.7,25.13,SSE,164,4.0,6.3,23,0.00,,,-99.99,FreeWX 2.04,2013-07-24 13:22:00,
2013-07-24 07:27:00,72.7,33.8,25.13,SSE,155,3.0,4.9,24,0.00,,,-99.99,FreeWX 2.04,2013-07-24 13:27:00,
2013-07-24 07:32:00,72.9,35.1,25.13,SSE,157,2.0,2.7,25,0.00,,,-99.99,FreeWX 2.04,2013-07-24 13:32:00,
2013-07-24 07:37:00,73.0,34.2,25.13,North,-999,0.0,0.0,24,0.00,,,-99.99,FreeWX 2.04,2013-07-24 13:37:00,
2013-07-24 07:42:00,73.6,33.4,25.13,North,-999,0.0,3.6,23,0.00,,,-99.99,FreeWX 2.04,2013-07-24 13:42:00,
2013-07-24 07:47:00,73.9,33.8,25.13,SSE,150,2.0,4.9,23,0.00,,,-99.99,FreeWX 2.04,2013-07-24 13:47:00,
2013-07-24 07:52:00,74.3,32.9,25.13,SE,143,3.0,4.0,22,0.00,,,-99.99,FreeWX 2.04,2013-07-24 13:52:00,
2013-07-24 07:57:00,74.5,33.1,25.13,SE,132,2.0,3.6,22,0.00,,,-99.99,FreeWX 2.04,2013-07-24 13:57:00,
2013-07-24 08:03:00,74.5,32.0,25.13,SE,128,1.0,3.6,21,0.00,,,-99.99,FreeWX 2.04,2013-07-24 14:03:00,
2013-07-24 08:08:00,74.7,32.2,25.13,North,-999,0.0,2.7,21,0.00,,,-99.99,FreeWX 2.04,2013-07-24 14:08:00,
2013-07-24 08:13:00,75.0,31.3,25.13,North,-999,0.0,0.0,20,0.00,,,-99.99,FreeWX 2.04,2013-07-24 14:13:00,
2013-07-24 08:18:00,75.4,28.9,25.13,North,-999,0.0,0.0,18,0.00,,,-99.99,FreeWX 2.04,2013-07-24 14:18:00,
2013-07-24 08:23:00,76.5,25.3,25.13,East,87,1.0,5.8,15,0.00,,,-99.99,FreeWX 2.04,2013-07-24 14:23:00,
2013-07-24 08:28:00,76.8,30.0,25.13,North,355,4.0,5.8,18,0.00,,,-99.99,FreeWX 2.04,2013-07-24 14:28:00,
2013-07-24 08:33:00,77.0,30.2,25.13,NNW,334,4.0,4.9,18,0.00,,,-99.99,FreeWX 2.04,2013-07-24 14:33:00,
2013-07-24 08:38:00,77.4,26.1,25.13,NNW,341,3.0,4.5,15,0.00,,,-99.99,FreeWX 2.04,2013-07-24 14:38:00,
2013-07-24 08:43:00,77.5,22.8,25.13,NNE,14,3.0,4.5,13,0.00,,,-99.99,FreeWX 2.04,2013-07-24 14:43:00,
2013-07-24 08:48:00,77.7,23.0,25.13,NE,50,2.0,4.0,13,0.00,,,-99.99,FreeWX 2.04,2013-07-24 14:48:00,
2013-07-24 08:53:00,78.1,21.4,25.13,ENE,63,2.0,3.6,12,0.00,,,-99.99,FreeWX 2.04,2013-07-24 14:53:00,
2013-07-24 08:58:00,78.4,21.6,25.13,ENE,63,1.0,3.1,12,0.00,,,-99.99,FreeWX 2.04,2013-07-24 14:58:00,
2013-07-24 09:03:00,78.8,21.9,25.13,ENE,58,1.0,6.7,12,0.00,,,-99.99,FreeWX 2.04,2013-07-24 15:03:00,
2013-07-24 09:08:00,78.3,26.8,25.13,North,356,3.0,6.9,15,0.00,,,-99.99,FreeWX 2.04,2013-07-24 15:08:00,
2013-07-24 09:13:00,78.1,26.6,25.13,NW,307,6.0,9.2,15,0.00,,,-99.99,FreeWX 2.04,2013-07-24 15:13:00,
2013-07-24 09:18:00,78.6,21.7,25.13,WNW,296,6.0,7.4,12,0.00,,,-99.99,FreeWX 2.04,2013-07-24 15:18:00,
2013-07-24 09:23:00,79.0,22.1,25.13,WNW,292,5.0,6.3,12,0.00,,,-99.99,FreeWX 2.04,2013-07-24 15:23:00,
2013-07-24 09:28:00,79.5,-99.9,25.13,NW,306,4.0,5.8,-999,0.00,,,-99.99,FreeWX 2.04,2013-07-24 15:28:00,
2013-07-24 09:33:00,79.9,-99.9,25.13,NNW,331,4.0,6.9,-999,0.00,,,-99.99,FreeWX 2.04,2013-07-24 15:33:00,
2013-07-24 09:38:00,80.2,-99.9,25.13,NNW,338,5.0,6.7,-999,0.00,,,-99.99,FreeWX 2.04,2013-07-24 15:38:00,
2013-07-24 09:43:00,81.1,-99.9,25.13,NNW,341,5.0,8.3,-999,0.00,,,-99.99,FreeWX 2.04,2013-07-24 15:43:00,
2013-07-24 09:48:00,82.9,-99.9,25.16,North,1,9.0,21.9,-999,0.00,,,-99.99,FreeWX 2.04,2013-07-24 15:48:00,
2013-07-24 09:53:00,82.2,-99.9,25.16,NNE,15,16.0,29.1,-999,0.00,,,-99.99,FreeWX 2.04,2013-07-24 15:53:00,
2013-07-24 09:58:00,82.6,-99.9,25.16,NNE,21,17.0,27.1,-999,0.00,,,-99.99,FreeWX 2.04,2013-07-24 15:58:00,
2013-07-24 10:03:00,82.4,-99.9,25.16,NNE,24,18.0,30.0,-999,0.00,,,-99.99,FreeWX 2.04,2013-07-24 16:03:00,
2013-07-24 10:08:00,82.4,-99.9,25.16,NNE,22,18.0,27.5,-999,0.00,,,-99.99,FreeWX 2.04,2013-07-24 16:08:00,
2013-07-24 10:13:00,82.2,-99.9,25.16,NNE,25,18.0,28.0,-999,0.00,,,-99.99,FreeWX 2.04,2013-07-24 16:13:00,
2013-07-24 10:18:00,82.2,-99.9,25.16,NNE,23,19.0,30.0,-999,0.00,,,-99.99,FreeWX 2.04,2013-07-24 16:18:00,
2013-07-24 10:23:00,82.2,-99.9,25.16,NNE,21,18.0,30.0,-999,0.00,,,-99.99,FreeWX 2.04,2013-07-24 16:23:00,
2013-07-24 10:28:00,82.0,-99.9,25.16,NNE,23,18.0,30.4,-999,0.00,,,-99.99,FreeWX 2.04,2013-07-24 16:28:00,
2013-07-24 10:33:00,82.4,-99.9,25.16,NNE,25,17.0,24.4,-999,0.00,,,-99.99,FreeWX 2.04,2013-07-24 16:33:00,
2013-07-24 10:38:00,82.6,-99.9,25.16,NNE,24,15.0,27.1,-999,0.00,,,-99.99,FreeWX 2.04,2013-07-24 16:38:00,
2013-07-24 10:43:00,82.6,-99.9,25.16,NNE,24,14.0,18.1,-999,0.00,,,-99.99,FreeWX 2.04,2013-07-24 16:43:00,
2013-07-24 10:48:00,83.1,-99.9,25.16,NNE,26,12.0,18.1,-999,0.00,,,-99.99,FreeWX 2.04,2013-07-24 16:48:00,
2013-07-24 10:53:00,83.5,-99.9,25.16,NNE,29,10.0,18.1,-999,0.00,,,-99.99,FreeWX 2.04,2013-07-24 16:53:00,
2013-07-24 10:58:00,83.5,-99.9,25.16,NNE,19,10.0,20.1,-999,0.00,,,-99.99,FreeWX 2.04,2013-07-24 16:58:00,
2013-07-24 11:03:00,83.1,-99.9,25.16,North,3,12.0,18.6,-999,0.00,,,-99.99,FreeWX 2.04,2013-07-24 17:03:00,
2013-07-24 11:08:00,83.1,-99.9,25.16,North,0,14.0,21.0,-999,0.00,,,-99.99,FreeWX 2.04,2013-07-24 17:08:00,
2013-07-24 11:13:00,83.1,-99.9,25.16,North,3,14.0,20.1,-999,0.00,,,-99.99,FreeWX 2.04,2013-07-24 17:13:00,
2013-07-24 11:18:00,83.3,-99.9,25.16,North,8,15.0,24.4,-999,0.00,,,-99.99,FreeWX 2.04,2013-07-24 17:18:00,
2013-07-24 11:23:00,83.5,-99.9,25.16,NNE,15,14.0,19.9,-999,0.00,,,-99.99,FreeWX 2.04,2013-07-24 17:23:00,
2013-07-24 11:28:00,83.5,-99.9,25.16,NNE,23,12.0,17.7,-999,0.00,,,-99.99,FreeWX 2.04,2013-07-24 17:28:00,
2013-07-24 11:33:00,83.3,-99.9,25.16,NNE,28,12.0,19.0,-999,0.00,,,-99.99,FreeWX 2.04,2013-07-24 17:33:00,
2013-07-24 11:38:00,83.5,-99.9,25.16,NNE,29,12.0,20.6,-999,0.00,,,-99.99,FreeWX 2.04,2013-07-24 17:38:00,
2013-07-24 11:43:00,83.3,-99.9,25.16,NNE,19,14.0,23.7,-999,0.00,,,-99.99,FreeWX 2.04,2013-07-24 17:43:00,
2013-07-24 11:48:00,83.1,-99.9,25.16,NNE,15,16.0,22.8,-999,0.00,,,-99.99,FreeWX 2.04,2013-07-24 17:48:00,
2013-07-24 11:53:00,82.9,-99.9,25.16,NNE,20,15.0,23.3,-999,0.00,,,-99.99,FreeWX 2.04,2013-07-24 17:53:00,
2013-07-24 11:58:00,82.9,-99.9,25.16,NNE,20,15.0,24.8,-999,0.00,,,-99.99,FreeWX 2.04,2013-07-24 17:58:00,
2013-07-24 12:03:00,82.8,-99.9,25.16,NNE,21,15.0,20.6,-999,0.00,,,-99.99,FreeWX 2.04,2013-07-24 18:03:00,
2013-07-24 12:08:00,83.1,-99.9,25.16,NNE,28,14.0,22.4,-999,0.00,,,-99.99,FreeWX 2.04,2013-07-24 18:08:00,
2013-07-24 12:13:00,83.1,-99.9,25.16,NNE,28,14.0,23.7,-999,0.00,,,-99.99,FreeWX 2.04,2013-07-24 18:13:00,
2013-07-24 12:18:00,83.7,-99.9,25.16,NNE,26,15.0,23.3,-999,0.00,,,-99.99,FreeWX 2.04,2013-07-24 18:18:00,
2013-07-24 12:23:00,83.5,-99.9,25.16,NNE,25,14.0,18.1,-999,0.00,,,-99.99,FreeWX 2.04,2013-07-24 18:23:00,
2013-07-24 12:28:00,83.3,-99.9,25.16,NNE,17,14.0,26.6,-999,0.00,,,-99.99,FreeWX 2.04,2013-07-24 18:28:00,
2013-07-24 12:33:00,82.9,-99.9,25.16,North,11,16.0,23.3,-999,0.00,,,-99.99,FreeWX 2.04,2013-07-24 18:33:00,
2013-07-24 12:38:00,83.5,-99.9,25.16,NNE,15,15.0,23.3,-999,0.00,,,-99.99,FreeWX 2.04,2013-07-24 18:38:00,
2013-07-24 12:43:00,82.9,-99.9,25.16,NNE,16,14.0,25.3,-999,0.00,,,-99.99,FreeWX 2.04,2013-07-24 18:43:00,
2013-07-24 12:48:00,82.2,-99.9,25.16,North,10,16.0,26.2,-999,0.00,,,-99.99,FreeWX 2.04,2013-07-24 18:48:00,
2013-07-24 12:53:00,82.0,-99.9,25.16,North,9,18.0,25.7,-999,0.00,,,-99.99,FreeWX 2.04,2013-07-24 18:53:00,
2013-07-24 12:58:00,81.9,22.3,25.16,North,10,17.0,27.1,11,0.00,,,-99.99,FreeWX 2.04,2013-07-24 18:58:00,
2013-07-24 13:03:00,82.0,22.3,25.16,North,10,15.0,22.4,11,0.00,,,-99.99,FreeWX 2.04,2013-07-24 19:03:00,
2013-07-24 13:08:00,82.4,22.6,25.16,NNE,13,14.0,23.3,11,0.00,,,-99.99,FreeWX 2.04,2013-07-24 19:08:00,
2013-07-24 13:13:00,82.4,22.6,25.16,North,11,14.0,21.5,11,0.00,,,-99.99,FreeWX 2.04,2013-07-24 19:13:00,
2013-07-24 13:19:00,82.9,-99.9,25.16,NNE,13,12.0,16.3,-999,0.00,,,-99.99,FreeWX 2.04,2013-07-24 19:19:00,
2013-07-24 13:24:00,82.8,-99.9,25.16,NNE,12,11.0,20.6,-999,0.00,,,-99.99,FreeWX 2.04,2013-07-24 19:24:00,
2013-07-24 13:29:00,82.6,-99.9,25.16,North,3,13.0,21.9,-999,0.00,,,-99.99,FreeWX 2.04,2013-07-24 19:29:00,
2013-07-24 13:34:00,82.8,-99.9,25.16,North,3,14.0,21.0,-999,0.00,,,-99.99,FreeWX 2.04,2013-07-24 19:34:00,
2013-07-24 13:39:00,82.9,-99.9,25.16,North,5,13.0,18.1,-999,0.00,,,-99.99,FreeWX 2.04,2013-07-24 19:39:00,
2013-07-24 13:44:00,83.3,-99.9,25.16,North,0,12.0,19.5,-999,0.00,,,-99.99,FreeWX 2.04,2013-07-24 19:44:00,
2013-07-24 13:49:00,84.4,-99.9,25.16,North,358,12.0,18.6,-999,0.00,,,-99.99,FreeWX 2.04,2013-07-24 19:49:00,
2013-07-24 13:54:00,84.9,-99.9,25.16,North,359,11.0,16.3,-999,0.00,,,-99.99,FreeWX 2.04,2013-07-24 19:54:00,
2013-07-24 13:59:00,85.3,-99.9,25.16,North,2,10.0,15.4,-999,0.00,,,-99.99,FreeWX 2.04,2013-07-24 19:59:00,
2013-07-24 14:04:00,85.3,-99.9,25.13,North,358,10.0,15.9,-999,0.00,,,-99.99,FreeWX 2.04,2013-07-24 20:04:00,
2013-07-24 14:09:00,85.8,-99.9,25.13,North,358,11.0,17.2,-999,0.00,,,-99.99,FreeWX 2.04,2013-07-24 20:09:00,
2013-07-24 14:14:00,86.4,-99.9,25.13,NNE,13,10.0,13.0,-999,0.00,,,-99.99,FreeWX 2.04,2013-07-24 20:14:00,
2013-07-24 14:19:00,85.6,-99.9,25.13,NNE,26,9.0,15.4,-999,0.00,,,-99.99,FreeWX 2.04,2013-07-24 20:19:00,
2013-07-24 14:24:00,85.8,-99.9,25.13,NNE,28,10.0,17.7,-999,0.00,,,-99.99,FreeWX 2.04,2013-07-24 20:24:00,
2013-07-24 14:29:00,85.3,-99.9,25.13,NE,35,9.0,15.4,-999,0.00,,,-99.99,FreeWX 2.04,2013-07-24 20:29:00,
2013-07-24 14:34:00,85.1,-99.9,25.13,NE,41,7.0,12.1,-999,0.00,,,-99.99,FreeWX 2.04,2013-07-24 20:34:00,
2013-07-24 14:39:00,85.1,-99.9,25.13,NE,42,6.0,9.6,-999,0.00,,,-99.99,FreeWX 2.04,2013-07-24 20:39:00,
2013-07-24 14:44:00,85.3,-99.9,25.13,ENE,59,5.0,8.3,-999,0.00,,,-99.99,FreeWX 2.04,2013-07-24 20:44:00,
2013-07-24 14:49:00,85.6,-99.9,25.13,NE,55,5.0,10.1,-999,0.00,,,-99.99,FreeWX 2.04,2013-07-24 20:49:00,
2013-07-24 14:54:00,85.1,-99.9,25.13,NNE,23,6.0,14.8,-999,0.00,,,-99.99,FreeWX 2.04,2013-07-24 20:54:00,
2013-07-24 14:59:00,85.6,-99.9,25.13,North,353,7.0,10.1,-999,0.00,,,-99.99,FreeWX 2.04,2013-07-24 20:59:00,
2013-07-24 15:04:00,86.7,-99.9,25.13,NNW,340,7.0,11.6,-999,0.00,,,-99.99,FreeWX 2.04,2013-07-24 21:04:00,
2013-07-24 15:09:00,87.3,-99.9,25.13,NNW,346,7.0,12.5,-999,0.00,,,-99.99,FreeWX 2.04,2013-07-24 21:09:00,
2013-07-24 15:14:00,86.5,-99.9,25.13,NNW,344,8.0,16.8,-999,0.00,,,-99.99,FreeWX 2.04,2013-07-24 21:14:00,
2013-07-24 15:19:00,86.0,-99.9,25.13,NNW,338,9.0,15.4,-999,0.00,,,-99.99,FreeWX 2.04,2013-07-24 21:19:00,
2013-07-24 15:24:00,85.8,-99.9,25.13,NNW,345,10.0,14.8,-999,0.00,,,-99.99,FreeWX 2.04,2013-07-24 21:24:00,
2013-07-24 15:29:00,86.0,-99.9,25.13,NNW,348,10.0,13.4,-999,0.00,,,-99.99,FreeWX 2.04,2013-07-24 21:29:00,
2013-07-24 15:34:00,87.1,-99.9,25.10,NNW,340,8.0,13.0,-999,0.00,,,-99.99,FreeWX 2.04,2013-07-24 21:34:00,
2013-07-24 15:39:00,86.7,-99.9,25.10,NNW,339,8.0,10.5,-999,0.00,,,-99.99,FreeWX 2.04,2013-07-24 21:39:00,
2013-07-24 15:44:00,87.6,-99.9,25.10,NNW,346,7.0,11.2,-999,0.00,,,-99.99,FreeWX 2.04,2013-07-24 21:44:00,
2013-07-24 15:49:00,87.4,-99.9,25.10,North,0,7.0,11.2,-999,0.00,,,-99.99,FreeWX 2.04,2013-07-24 21:49:00,
2013-07-24 15:54:00,88.2,-99.9,25.10,North,354,6.0,9.6,-999,0.00,,,-99.99,FreeWX 2.04,2013-07-24 21:54:00,
2013-07-24 15:59:00,88.7,-99.9,25.10,NNW,332,6.0,11.2,-999,0.00,,,-99.99,FreeWX 2.04,2013-07-24 21:59:00,
2013-07-24 16:04:00,88.7,-99.9,25.10,North,351,6.0,9.6,-999,0.00,,,-99.99,FreeWX 2.04,2013-07-24 22:04:00,
2013-07-24 16:09:00,87.8,-99.9,25.10,NNE,29,5.0,9.2,-999,0.00,,,-99.99,FreeWX 2.04,2013-07-24 22:09:00,
2013-07-24 16:14:00,89.1,-99.9,25.10,ENE,63,4.0,7.8,-999,0.00,,,-99.99,FreeWX 2.04,2013-07-24 22:14:00,
2013-07-24 16:19:00,88.5,-99.9,25.10,NE,49,5.0,9.6,-999,0.00,,,-99.99,FreeWX 2.04,2013-07-24 22:19:00,
2013-07-24 16:24:00,88.5,-99.9,25.10,NNE,12,5.0,9.6,-999,0.00,,,-99.99,FreeWX 2.04,2013-07-24 22:24:00,
2013-07-24 16:29:00,89.4,-99.9,25.10,NNE,18,4.0,6.3,-999,0.00,,,-99.99,FreeWX 2.04,2013-07-24 22:29:00,
2013-07-24 16:34:00,89.8,-99.9,25.10,NE,38,4.0,8.7,-999,0.00,,,-99.99,FreeWX 2.04,2013-07-24 22:34:00,
2013-07-24 16:39:00,88.3,-99.9,25.10,North,5,6.0,12.1,-999,0.00,,,-99.99,FreeWX 2.04,2013-07-24 22:39:00,
2013-07-24 16:44:00,88.7,-99.9,25.10,NW,321,7.0,16.8,-999,0.00,,,-99.99,FreeWX 2.04,2013-07-24 22:44:00,
2013-07-24 16:49:00,88.3,-99.9,25.07,NW,317,6.0,9.2,-999,0.00,,,-99.99,FreeWX 2.04,2013-07-24 22:49:00,
2013-07-24 16:54:00,88.7,-99.9,25.07,NW,307,6.0,10.1,-999,0.00,,,-99.99,FreeWX 2.04,2013-07-24 22:54:00,
2013-07-24 16:59:00,89.6,-99.9,25.07,West,266,6.0,11.0,-999,0.00,,,-99.99,FreeWX 2.04,2013-07-24 22:59:00,
2013-07-24 17:04:00,89.4,-99.9,25.07,West,261,6.0,11.0,-999,0.00,,,-99.99,FreeWX 2.04,2013-07-24 23:04:00,
2013-07-24 17:09:00,90.1,-99.9,25.07,NW,320,5.0,9.6,-999,0.00,,,-99.99,FreeWX 2.04,2013-07-24 23:09:00,
2013-07-24 17:14:00,89.4,-99.9,25.07,NW,326,6.0,11.6,-999,0.00,,,-99.99,FreeWX 2.04,2013-07-24 23:14:00,
2013-07-24 17:19:00,89.1,-99.9,25.07,WNW,292,7.0,10.5,-999,0.00,,,-99.99,FreeWX 2.04,2013-07-24 23:19:00,
2013-07-24 17:24:00,88.7,-99.9,25.07,NW,304,7.0,11.2,-999,0.00,,,-99.99,FreeWX 2.04,2013-07-24 23:24:00,
2013-07-24 17:29:00,88.7,-99.9,25.07,WNW,293,7.0,10.1,-999,0.00,,,-99.99,FreeWX 2.04,2013-07-24 23:29:00,
2013-07-24 17:34:00,89.4,-99.9,25.07,NW,308,5.0,9.2,-999,0.00,,,-99.99,FreeWX 2.04,2013-07-24 23:34:00,
2013-07-24 17:39:00,89.4,-99.9,25.07,North,358,6.0,12.1,-999,0.00,,,-99.99,FreeWX 2.04,2013-07-24 23:39:00,
2013-07-24 17:44:00,89.2,-99.9,25.07,North,6,7.0,11.0,-999,0.00,,,-99.99,FreeWX 2.04,2013-07-24 23:44:00,
2013-07-24 17:49:00,88.9,-99.9,25.07,NNW,346,7.0,8.3,-999,0.00,,,-99.99,FreeWX 2.04,2013-07-24 23:49:00,
2013-07-24 17:54:00,89.8,-99.9,25.07,NW,314,5.0,7.8,-999,0.00,,,-99.99,FreeWX 2.04,2013-07-24 23:54:00,
2013-07-24 17:59:00,89.6,-99.9,25.07,NNW,330,5.0,11.0,-999,0.00,,,-99.99,FreeWX 2.04,2013-07-24 23:59:00,
2013-07-24 18:04:00,89.4,-99.9,25.07,North,351,6.0,9.2,-999,0.00,,,-99.99,FreeWX 2.04,2013-07-25 00:04:00,
2013-07-24 18:09:00,89.2,-99.9,25.07,NW,320,6.0,10.5,-999,0.00,,,-99.99,FreeWX 2.04,2013-07-25 00:09:00,
2013-07-24 18:14:00,89.2,-99.9,25.07,NW,321,5.0,8.7,-999,0.00,,,-99.99,FreeWX 2.04,2013-07-25 00:14:00,
2013-07-24 18:19:00,88.3,-99.9,25.07,NNW,336,5.0,9.6,-999,0.00,,,-99.99,FreeWX 2.04,2013-07-25 00:19:00,
2013-07-24 18:24:00,87.6,-99.9,25.07,NW,320,6.0,9.6,-999,0.00,,,-99.99,FreeWX 2.04,2013-07-25 00:24:00,
2013-07-24 18:29:00,88.0,-99.9,25.07,WNW,291,6.0,10.1,-999,0.00,,,-99.99,FreeWX 2.04,2013-07-25 00:29:00,
2013-07-24 18:34:00,87.8,-99.9,25.07,NW,304,6.0,10.1,-999,0.00,,,-99.99,FreeWX 2.04,2013-07-25 00:34:00,
2013-07-24 18:39:00,88.2,-99.9,25.07,NNW,335,5.0,7.8,-999,0.00,,,-99.99,FreeWX 2.04,2013-07-25 00:39:00,
2013-07-24 18:44:00,88.5,-99.9,25.07,NNW,332,5.0,9.2,-999,0.00,,,-99.99,FreeWX 2.04,2013-07-25 00:44:00,
2013-07-24 18:49:00,88.5,-99.9,25.07,NNW,338,5.0,9.2,-999,0.00,,,-99.99,FreeWX 2.04,2013-07-25 00:49:00,
2013-07-24 18:54:00,88.2,-99.9,25.07,NNW,342,5.0,9.6,-999,0.00,,,-99.99,FreeWX 2.04,2013-07-25 00:54:00,
2013-07-24 18:59:00,88.3,-99.9,25.07,WNW,295,5.0,10.5,-999,0.00,,,-99.99,FreeWX 2.04,2013-07-25 00:59:00,
2013-07-24 19:04:00,88.2,-99.9,25.07,West,265,6.0,11.2,-999,0.00,,,-99.99,FreeWX 2.04,2013-07-25 01:04:00,
2013-07-24 19:09:00,88.2,-99.9,25.07,WNW,290,6.0,9.2,-999,0.00,,,-99.99,FreeWX 2.04,2013-07-25 01:09:00,
2013-07-24 19:14:00,87.8,-99.9,25.04,NNW,327,6.0,9.2,-999,0.00,,,-99.99,FreeWX 2.04,2013-07-25 01:14:00,
2013-07-24 19:19:00,88.3,-99.9,25.04,NNW,332,5.0,6.3,-999,0.00,,,-99.99,FreeWX 2.04,2013-07-25 01:19:00,
2013-07-24 19:24:00,88.0,-99.9,25.04,NW,323,4.0,6.9,-999,0.00,,,-99.99,FreeWX 2.04,2013-07-25 01:24:00,
2013-07-24 19:29:00,87.4,-99.9,25.04,NW,313,4.0,8.3,-999,0.00,,,-99.99,FreeWX 2.04,2013-07-25 01:29:00,
2013-07-24 19:34:00,87.1,-99.9,25.04,NW,316,4.0,6.9,-999,0.00,,,-99.99,FreeWX 2.04,2013-07-25 01:34:00,
2013-07-24 19:40:00,87.1,-99.9,25.04,NW,325,5.0,8.7,-999,0.00,,,-99.99,FreeWX 2.04,2013-07-25 01:40:00,
2013-07-24 19:45:00,87.1,-99.9,25.04,NNW,343,5.0,8.7,-999,0.00,,,-99.99,FreeWX 2.04,2013-07-25 01:45:00,
2013-07-24 19:50:00,86.9,-99.9,25.04,NNW,347,4.0,7.8,-999,0.00,,,-99.99,FreeWX 2.04,2013-07-25 01:50:00,
2013-07-24 19:55:00,86.5,-99.9,25.04,NNW,336,4.0,7.4,-999,0.00,,,-99.99,FreeWX 2.04,2013-07-25 01:55:00,
2013-07-24 20:00:00,86.4,-99.9,25.04,NNW,330,3.0,5.4,-999,0.00,,,-99.99,FreeWX 2.04,2013-07-25 02:00:00,
2013-07-24 20:05:00,86.2,-99.9,25.04,NNW,327,3.0,6.3,-999,0.00,,,-99.99,FreeWX 2.04,2013-07-25 02:05:00,
2013-07-24 20:10:00,86.0,-99.9,25.04,NNW,342,4.0,6.9,-999,0.00,,,-99.99,FreeWX 2.04,2013-07-25 02:10:00,
2013-07-24 20:15:00,85.6,-99.9,25.07,North,0,5.0,6.3,-999,0.00,,,-99.99,FreeWX 2.04,2013-07-25 02:15:00,
2013-07-24 20:20:00,85.3,-99.9,25.07,North,8,5.0,7.8,-999,0.00,,,-99.99,FreeWX 2.04,2013-07-25 02:20:00,
2013-07-24 20:25:00,84.9,-99.9,25.07,NNE,16,4.0,6.7,-999,0.00,,,-99.99,FreeWX 2.04,2013-07-25 02:25:00,
2013-07-24 20:30:00,84.2,-99.9,25.07,NNE,22,3.0,4.0,-999,0.00,,,-99.99,FreeWX 2.04,2013-07-25 02:30:00,
2013-07-24 20:35:00,84.0,-99.9,25.07,NNE,25,3.0,4.5,-999,0.00,,,-99.99,FreeWX 2.04,2013-07-25 02:35:00,
2013-07-24 20:40:00,83.8,-99.9,25.07,NNE,24,4.0,6.3,-999,0.00,,,-99.99,FreeWX 2.04,2013-07-25 02:40:00,
2013-07-24 20:45:00,83.5,-99.9,25.07,NNE,23,4.0,5.4,-999,0.00,,,-99.99,FreeWX 2.04,2013-07-25 02:45:00,
2013-07-24 20:50:00,82.8,-99.9,25.07,NNE,23,4.0,6.7,-999,0.00,,,-99.99,FreeWX 2.04,2013-07-25 02:50:00,
2013-07-24 20:55:00,82.2,-99.9,25.07,NNE,26,4.0,6.3,-999,0.00,,,-99.99,FreeWX 2.04,2013-07-25 02:55:00,
2013-07-24 21:00:00,82.2,-99.9,25.07,NNE,31,4.0,5.4,-999,0.00,,,-99.99,FreeWX 2.04,2013-07-25 03:00:00,
2013-07-24 21:05:00,82.0,-99.9,25.07,NNE,33,4.0,5.4,-999,0.00,,,-99.99,FreeWX 2.04,2013-07-25 03:05:00,
2013-07-24 21:10:00,82.0,-99.9,25.07,NNE,29,4.0,5.8,-999,0.00,,,-99.99,FreeWX 2.04,2013-07-25 03:10:00,
2013-07-24 21:25:00,80.8,-99.9,25.07,NE,34,4.0,4.9,-999,0.00,,,-99.99,FreeWX 2.04,2013-07-25 03:25:00,
2013-07-24 21:36:00,80.6,-99.9,25.07,NE,55,2.0,5.8,-999,0.00,,,-99.99,FreeWX 2.04,2013-07-25 03:36:00,
2013-07-24 21:41:00,81.1,-99.9,25.07,NNE,30,4.0,6.9,-999,0.00,,,-99.99,FreeWX 2.04,2013-07-25 03:41:00,
2013-07-24 21:46:00,80.8,-99.9,25.07,NNE,14,4.0,5.8,-999,0.00,,,-99.99,FreeWX 2.04,2013-07-25 03:46:00,
2013-07-24 21:56:00,78.4,-99.9,25.07,SE,146,5.0,7.8,-999,0.00,,,-99.99,FreeWX 2.04,2013-07-25 03:56:00,
2013-07-24 22:01:00,79.2,-99.9,25.07,South,180,5.0,8.3,-999,0.00,,,-99.99,FreeWX 2.04,2013-07-25 04:01:00,
2013-07-24 22:06:00,78.6,21.7,25.07,South,187,5.0,6.3,12,0.00,,,-99.99,FreeWX 2.04,2013-07-25 04:06:00,
2013-07-24 22:11:00,78.6,21.7,25.07,South,187,3.0,3.6,12,0.00,,,-99.99,FreeWX 2.04,2013-07-25 04:11:00,
2013-07-24 22:16:00,78.6,21.7,25.07,South,188,1.0,3.1,12,0.00,,,-99.99,FreeWX 2.04,2013-07-25 04:16:00,
2013-07-24 22:22:00,78.4,21.6,25.07,South,190,2.0,4.5,12,0.00,,,-99.99,FreeWX 2.04,2013-07-25 04:22:00,
2013-07-24 22:27:00,78.1,21.4,25.07,South,191,2.0,3.6,12,0.00,,,-99.99,FreeWX 2.04,2013-07-25 04:27:00,
2013-07-24 22:32:00,78.1,26.6,25.10,South,191,1.0,0.0,15,0.00,,,-99.99,FreeWX 2.04,2013-07-25 04:32:00,
2013-07-24 22:37:00,78.4,27.0,25.10,North,-999,0.0,3.1,15,0.00,,,-99.99,FreeWX 2.04,2013-07-25 04:37:00,
2013-07-24 22:42:00,78.6,21.7,25.10,South,181,1.0,5.4,12,0.00,,,-99.99,FreeWX 2.04,2013-07-25 04:42:00,
2013-07-24 22:47:00,79.2,22.1,25.10,South,178,2.0,4.9,12,0.00,,,-99.99,FreeWX 2.04,2013-07-25 04:47:00,
2013-07-24 22:52:00,79.3,22.3,25.10,SSE,167,2.0,6.7,12,0.00,,,-99.99,FreeWX 2.04,2013-07-25 04:52:00,
2013-07-24 22:57:00,79.2,22.1,25.10,SSE,152,3.0,4.9,12,0.00,,,-99.99,FreeWX 2.04,2013-07-25 04:57:00,
2013-07-24 23:02:00,78.4,21.6,25.10,SE,146,2.0,4.0,12,0.00,,,-99.99,FreeWX 2.04,2013-07-25 05:02:00,
2013-07-24 23:07:00,77.9,21.2,25.10,SE,146,1.0,4.0,12,0.00,,,-99.99,FreeWX 2.04,2013-07-25 05:07:00,
2013-07-24 23:12:00,77.7,23.0,25.10,SE,146,2.0,4.5,13,0.00,,,-99.99,FreeWX 2.04,2013-07-25 05:12:00,
2013-07-24 23:17:00,77.9,21.2,25.10,SE,146,2.0,3.1,12,0.00,,,-99.99,FreeWX 2.04,2013-07-25 05:17:00,
2013-07-24 23:22:00,77.4,26.1,25.10,SE,146,1.0,4.5,15,0.00,,,-99.99,FreeWX 2.04,2013-07-25 05:22:00,
2013-07-24 23:27:00,76.3,25.2,25.10,SE,146,2.0,4.9,15,0.00,,,-99.99,FreeWX 2.04,2013-07-25 05:27:00,
2013-07-24 23:32:00,77.0,25.9,25.10,SE,142,2.0,4.5,15,0.00,,,-99.99,FreeWX 2.04,2013-07-25 05:32:00,
2013-07-24 23:37:00,76.3,33.4,25.10,SE,133,3.0,6.7,21,0.00,,,-99.99,FreeWX 2.04,2013-07-25 05:37:00,
2013-07-24 23:42:00,75.2,36.0,25.10,SE,127,3.0,4.9,24,0.00,,,-99.99,FreeWX 2.04,2013-07-25 05:42:00,
2013-07-24 23:47:00,74.8,36.7,25.10,SE,126,2.0,4.5,25,0.00,,,-99.99,FreeWX 2.04,2013-07-25 05:47:00,
2013-07-24 23:52:00,75.2,34.9,25.10,SE,126,2.0,5.4,23,0.00,,,-99.99,FreeWX 2.04,2013-07-25 05:52:00,
2013-07-24 23:57:00,76.3,33.4,25.10,SE,125,3.0,6.9,21,0.00,,,-99.99,FreeWX 2.04,2013-07-25 05:57:00,